Time,TemperatureF,DewpointF,PressureIn,WindDirection,WindDirectionDegrees,WindSpeedMPH,WindSpeedGustMPH,Humidity,HourlyPrecipIn,Conditions,Clouds,dailyrainin,SoftwareType,DateUTC
2014-01-23 00:02:00,-2.9,-10.0,30.62,NNW,340,6.0,-999.0,73,-99.99,,,0.00,weatherlink.com 1.10,2014-01-23 06:02:00,
2014-01-23 00:18:00,-3.0,-10.0,30.63,West,261,8.0,-999.0,73,-99.99,,,0.00,weatherlink.com 1.10,2014-01-23 06:18:00,
2014-01-23 00:33:00,-3.2,-9.0,30.63,NNW,341,4.0,-999.0,75,-99.99,,,0.00,weatherlink.com 1.10,2014-01-23 06:33:00,
2014-01-23 00:48:00,-3.3,-10.0,30.63,NW,316,8.0,-999.0,74,-99.99,,,0.00,weatherlink.com 1.10,2014-01-23 06:48:00,
2014-01-23 01:03:00,-3.5,-10.0,30.64,NW,317,12.0,-999.0,75,-99.99,,,0.00,weatherlink.com 1.10,2014-01-23 07:03:00,
2014-01-23 01:18:00,-3.6,-10.0,30.64,WSW,237,10.0,-999.0,74,-99.99,,,0.00,weatherlink.com 1.10,2014-01-23 07:18:00,
2014-01-23 01:33:00,-3.8,-10.0,30.65,NW,322,10.0,-999.0,74,-99.99,,,0.00,weatherlink.com 1.10,2014-01-23 07:33:00,
2014-01-23 01:48:00,-4.0,-10.0,30.66,NW,323,7.0,-999.0,74,-99.99,,,0.00,weatherlink.com 1.10,2014-01-23 07:48:00,
2014-01-23 02:03:00,-4.0,-11.0,30.67,NW,313,7.0,-999.0,73,-99.99,,,0.00,weatherlink.com 1.10,2014-01-23 08:03:00,
2014-01-23 02:18:00,-4.2,-11.0,30.68,West,269,5.0,-999.0,74,-99.99,,,0.00,weatherlink.com 1.10,2014-01-23 08:18:00,
2014-01-23 02:34:00,-4.4,-11.0,30.68,NNW,343,4.0,-999.0,74,-99.99,,,0.00,weatherlink.com 1.10,2014-01-23 08:34:00,
2014-01-23 02:49:00,-4.5,-11.0,30.69,NW,319,6.0,-999.0,74,-99.99,,,0.00,weatherlink.com 1.10,2014-01-23 08:49:00,
2014-01-23 03:04:00,-4.5,-11.0,30.70,WNW,292,6.0,-999.0,74,-99.99,,,0.00,weatherlink.com 1.10,2014-01-23 09:04:00,
2014-01-23 03:19:00,-4.6,-11.0,30.70,WNW,302,6.0,-999.0,75,-99.99,,,0.00,weatherlink.com 1.10,2014-01-23 09:19:00,
2014-01-23 03:34:00,-4.7,-11.0,30.71,NNW,343,7.0,-999.0,75,-99.99,,,0.00,weatherlink.com 1.10,2014-01-23 09:34:00,
2014-01-23 04:04:00,-4.9,-11.0,30.72,NW,309,4.0,-999.0,75,-99.99,,,0.00,weatherlink.com 1.10,2014-01-23 10:04:00,
2014-01-23 04:19:00,-5.0,-11.0,30.73,NW,324,5.0,-999.0,74,-99.99,,,0.00,weatherlink.com 1.10,2014-01-23 10:19:00,
2014-01-23 04:34:00,-5.0,-11.0,30.74,NNW,345,7.0,-999.0,74,-99.99,,,0.00,weatherlink.com 1.10,2014-01-23 10:34:00,
2014-01-23 04:49:00,-5.2,-12.0,30.74,NNW,332,4.0,-999.0,74,-99.99,,,0.00,weatherlink.com 1.10,2014-01-23 10:49:00,
2014-01-23 05:05:00,-5.2,-12.0,30.75,NW,311,8.0,-999.0,74,-99.99,,,0.00,weatherlink.com 1.10,2014-01-23 11:05:00,
2014-01-23 05:20:00,-5.4,-12.0,30.76,NW,321,5.0,-999.0,74,-99.99,,,0.00,weatherlink.com 1.10,2014-01-23 11:20:00,
2014-01-23 05:35:00,-5.5,-12.0,30.77,NW,315,1.0,-999.0,75,-99.99,,,0.00,weatherlink.com 1.10,2014-01-23 11:35:00,
2014-01-23 05:50:00,-5.7,-12.0,30.78,NW,312,3.0,-999.0,75,-99.99,,,0.00,weatherlink.com 1.10,2014-01-23 11:50:00,
2014-01-23 06:05:00,-5.5,-12.0,30.79,NW,311,5.0,-999.0,75,-99.99,,,0.00,weatherlink.com 1.10,2014-01-23 12:05:00,
2014-01-23 06:20:00,-5.7,-12.0,30.80,WNW,299,1.0,-999.0,75,-99.99,,,0.00,weatherlink.com 1.10,2014-01-23 12:20:00,
2014-01-23 06:35:00,-5.9,-12.0,30.81,NW,315,6.0,-999.0,75,-99.99,,,0.00,weatherlink.com 1.10,2014-01-23 12:35:00,
2014-01-23 06:50:00,-5.9,-12.0,30.82,NW,319,4.0,-999.0,75,-99.99,,,0.00,weatherlink.com 1.10,2014-01-23 12:50:00,
2014-01-23 07:05:00,-6.0,-12.0,30.82,NNW,342,7.0,-999.0,75,-99.99,,,0.00,weatherlink.com 1.10,2014-01-23 13:05:00,
2014-01-23 07:20:00,-6.1,-12.0,30.83,NW,315,4.0,-999.0,75,-99.99,,,0.00,weatherlink.com 1.10,2014-01-23 13:20:00,
2014-01-23 07:36:00,-6.2,-12.0,30.84,NW,314,4.0,-999.0,75,-99.99,,,0.00,weatherlink.com 1.10,2014-01-23 13:36:00,
2014-01-23 07:51:00,-6.2,-12.0,30.84,NW,310,3.0,-999.0,76,-99.99,,,0.00,weatherlink.com 1.10,2014-01-23 13:51:00,
2014-01-23 08:06:00,-6.0,-12.0,30.84,NNW,346,4.0,-999.0,76,-99.99,,,0.00,weatherlink.com 1.10,2014-01-23 14:06:00,
2014-01-23 08:21:00,-5.7,-11.0,30.85,NW,323,8.0,-999.0,76,-99.99,,,0.00,weatherlink.com 1.10,2014-01-23 14:21:00,
2014-01-23 08:36:00,-5.0,-11.0,30.86,NNW,344,2.0,-999.0,75,-99.99,,,0.00,weatherlink.com 1.10,2014-01-23 14:36:00,
2014-01-23 08:51:00,-4.7,-11.0,30.86,NW,325,3.0,-999.0,73,-99.99,,,0.00,weatherlink.com 1.10,2014-01-23 14:51:00,
2014-01-23 09:06:00,-4.2,-11.0,30.87,NW,316,6.0,-999.0,72,-99.99,,,0.00,weatherlink.com 1.10,2014-01-23 15:06:00,
2014-01-23 09:21:00,-3.9,-11.0,30.88,WNW,293,4.0,-999.0,72,-99.99,,,0.00,weatherlink.com 1.10,2014-01-23 15:21:00,
2014-01-23 09:36:00,-3.2,-10.0,30.88,NW,318,6.0,-999.0,71,-99.99,,,0.00,weatherlink.com 1.10,2014-01-23 15:36:00,
2014-01-23 09:51:00,-2.7,-10.0,30.88,NNW,328,5.0,-999.0,71,-99.99,,,0.00,weatherlink.com 1.10,2014-01-23 15:51:00,
2014-01-23 10:06:00,-2.1,-10.0,30.89,NW,317,9.0,-999.0,70,-99.99,,,0.00,weatherlink.com 1.10,2014-01-23 16:06:00,
2014-01-23 10:22:00,-1.4,-9.0,30.90,NNE,24,8.0,-999.0,69,-99.99,,,0.00,weatherlink.com 1.10,2014-01-23 16:22:00,
2014-01-23 10:37:00,-0.2,-8.0,30.91,NW,313,11.0,-999.0,68,-99.99,,,0.00,weatherlink.com 1.10,2014-01-23 16:37:00,
2014-01-23 10:52:00,-0.4,-9.0,30.91,NNW,347,5.0,-999.0,67,-99.99,,,0.00,weatherlink.com 1.10,2014-01-23 16:52:00,
2014-01-23 11:07:00,0.4,-8.0,30.91,NNW,338,5.0,-999.0,67,-99.99,,,0.00,weatherlink.com 1.10,2014-01-23 17:07:00,
2014-01-23 11:22:00,1.7,-7.0,30.91,NNW,334,9.0,-999.0,67,-99.99,,,0.00,weatherlink.com 1.10,2014-01-23 17:22:00,
2014-01-23 11:37:00,1.8,-7.0,30.91,NW,304,4.0,-999.0,66,-99.99,,,0.00,weatherlink.com 1.10,2014-01-23 17:37:00,
2014-01-23 11:52:00,2.3,-7.0,30.90,NNW,333,6.0,-999.0,66,-99.99,,,0.00,weatherlink.com 1.10,2014-01-23 17:52:00,
2014-01-23 12:07:00,3.0,-6.0,30.90,WNW,292,5.0,-999.0,65,-99.99,,,0.00,weatherlink.com 1.10,2014-01-23 18:07:00,
2014-01-23 12:22:00,3.5,-6.0,30.90,NW,320,5.0,-999.0,65,-99.99,,,0.00,weatherlink.com 1.10,2014-01-23 18:22:00,
2014-01-23 12:37:00,4.3,-5.0,30.89,NW,316,9.0,-999.0,65,-99.99,,,0.00,weatherlink.com 1.10,2014-01-23 18:37:00,
2014-01-23 12:53:00,4.3,-6.0,30.89,NW,320,8.0,-999.0,63,-99.99,,,0.00,weatherlink.com 1.10,2014-01-23 18:53:00,
2014-01-23 13:08:00,5.4,-5.0,30.88,West,261,8.0,-999.0,63,-99.99,,,0.00,weatherlink.com 1.10,2014-01-23 19:08:00,
2014-01-23 13:23:00,5.5,-5.0,30.88,NNW,335,7.0,-999.0,61,-99.99,,,0.00,weatherlink.com 1.10,2014-01-23 19:23:00,
2014-01-23 13:38:00,6.3,-5.0,30.87,West,278,10.0,-999.0,60,-99.99,,,0.00,weatherlink.com 1.10,2014-01-23 19:38:00,
2014-01-23 13:53:00,6.8,-5.0,30.86,WNW,300,6.0,-999.0,58,-99.99,,,0.00,weatherlink.com 1.10,2014-01-23 19:53:00,
2014-01-23 14:08:00,7.3,-4.0,30.86,West,278,5.0,-999.0,59,-99.99,,,0.00,weatherlink.com 1.10,2014-01-23 20:08:00,
2014-01-23 14:23:00,7.5,-4.0,30.86,NW,317,6.0,-999.0,59,-99.99,,,0.00,weatherlink.com 1.10,2014-01-23 20:23:00,
2014-01-23 14:38:00,7.7,-4.0,30.86,NW,305,10.0,-999.0,59,-99.99,,,0.00,weatherlink.com 1.10,2014-01-23 20:38:00,
2014-01-23 14:53:00,7.4,-5.0,30.86,West,271,5.0,-999.0,58,-99.99,,,0.00,weatherlink.com 1.10,2014-01-23 20:53:00,
2014-01-23 15:08:00,7.8,-4.0,30.86,NW,308,5.0,-999.0,59,-99.99,,,0.00,weatherlink.com 1.10,2014-01-23 21:08:00,
2014-01-23 15:23:00,8.1,-4.0,30.86,NW,313,9.0,-999.0,59,-99.99,,,0.00,weatherlink.com 1.10,2014-01-23 21:23:00,
2014-01-23 15:38:00,8.6,-3.0,30.86,NW,306,5.0,-999.0,60,-99.99,,,0.00,weatherlink.com 1.10,2014-01-23 21:38:00,
2014-01-23 15:53:00,8.2,-3.0,30.86,NW,305,3.0,-999.0,60,-99.99,,,0.00,weatherlink.com 1.10,2014-01-23 21:53:00,
2014-01-23 16:09:00,8.3,-3.0,30.86,WSW,254,2.0,-999.0,60,-99.99,,,0.00,weatherlink.com 1.10,2014-01-23 22:09:00,
2014-01-23 16:24:00,8.5,-3.0,30.86,NW,315,2.0,-999.0,60,-99.99,,,0.00,weatherlink.com 1.10,2014-01-23 22:24:00,
2014-01-23 16:39:00,8.3,-3.0,30.86,NW,325,9.0,-999.0,60,-99.99,,,0.00,weatherlink.com 1.10,2014-01-23 22:39:00,
2014-01-23 16:54:00,7.5,-3.0,30.86,NW,323,3.0,-999.0,62,-99.99,,,0.00,weatherlink.com 1.10,2014-01-23 22:54:00,
2014-01-23 17:09:00,7.1,-3.0,30.86,NW,319,3.0,-999.0,63,-99.99,,,0.00,weatherlink.com 1.10,2014-01-23 23:09:00,
2014-01-23 17:24:00,6.6,-3.0,30.86,West,269,1.0,-999.0,65,-99.99,,,0.00,weatherlink.com 1.10,2014-01-23 23:24:00,
2014-01-23 17:39:00,6.3,-2.0,30.85,West,268,3.0,-999.0,68,-99.99,,,0.00,weatherlink.com 1.10,2014-01-23 23:39:00,
2014-01-23 17:54:00,5.8,-2.0,30.85,West,268,4.0,-999.0,69,-99.99,,,0.00,weatherlink.com 1.10,2014-01-23 23:54:00,
2014-01-23 18:09:00,5.4,-2.0,30.84,West,268,4.0,-999.0,70,-99.99,,,0.00,weatherlink.com 1.10,2014-01-24 00:09:00,
2014-01-23 18:24:00,5.1,-2.0,30.85,West,268,3.0,-999.0,71,-99.99,,,0.00,weatherlink.com 1.10,2014-01-24 00:24:00,
2014-01-23 18:39:00,4.9,-2.0,30.84,West,268,3.0,-999.0,72,-99.99,,,0.00,weatherlink.com 1.10,2014-01-24 00:39:00,
2014-01-23 18:54:00,4.8,-2.0,30.84,West,268,0.0,-999.0,72,-99.99,,,0.00,weatherlink.com 1.10,2014-01-24 00:54:00,
2014-01-23 19:09:00,4.9,-2.0,30.84,West,268,3.0,-999.0,72,-99.99,,,0.00,weatherlink.com 1.10,2014-01-24 01:09:00,
2014-01-23 19:24:00,5.0,-2.0,30.83,West,268,0.0,-999.0,72,-99.99,,,0.00,weatherlink.com 1.10,2014-01-24 01:24:00,
2014-01-23 19:40:00,4.4,-3.0,30.83,West,268,2.0,-999.0,73,-99.99,,,0.00,weatherlink.com 1.10,2014-01-24 01:40:00,
2014-01-23 19:55:00,3.9,-3.0,30.82,West,268,0.0,-999.0,74,-99.99,,,0.00,weatherlink.com 1.10,2014-01-24 01:55:00,
2014-01-23 20:10:00,3.6,-3.0,30.81,West,268,2.0,-999.0,74,-99.99,,,0.00,weatherlink.com 1.10,2014-01-24 02:10:00,
2014-01-23 20:25:00,3.6,-3.0,30.80,West,268,1.0,-999.0,75,-99.99,,,0.00,weatherlink.com 1.10,2014-01-24 02:25:00,
2014-01-23 20:40:00,3.5,-3.0,30.79,West,268,2.0,-999.0,76,-99.99,,,0.00,weatherlink.com 1.10,2014-01-24 02:40:00,
2014-01-23 20:55:00,3.3,-3.0,30.78,West,268,2.0,-999.0,76,-99.99,,,0.00,weatherlink.com 1.10,2014-01-24 02:55:00,
2014-01-23 21:10:00,2.8,-3.0,30.77,West,268,2.0,-999.0,78,-99.99,,,0.00,weatherlink.com 1.10,2014-01-24 03:10:00,
2014-01-23 21:25:00,3.1,-2.0,30.77,West,268,0.0,-999.0,78,-99.99,,,0.00,weatherlink.com 1.10,2014-01-24 03:25:00,
2014-01-23 21:40:00,3.2,-3.0,30.76,West,268,2.0,-999.0,76,-99.99,,,0.00,weatherlink.com 1.10,2014-01-24 03:40:00,
2014-01-23 21:55:00,2.9,-3.0,30.75,West,268,2.0,-999.0,76,-99.99,,,0.00,weatherlink.com 1.10,2014-01-24 03:55:00,
2014-01-23 22:10:00,2.8,-3.0,30.75,West,268,3.0,-999.0,76,-99.99,,,0.00,weatherlink.com 1.10,2014-01-24 04:10:00,
2014-01-23 22:25:00,2.7,-3.0,30.74,SSW,192,3.0,-999.0,76,-99.99,,,0.00,weatherlink.com 1.10,2014-01-24 04:25:00,
2014-01-23 22:40:00,2.4,-4.0,30.74,SSW,207,0.0,-999.0,76,-99.99,,,0.00,weatherlink.com 1.10,2014-01-24 04:40:00,
2014-01-23 22:56:00,2.6,-3.0,30.73,SSW,201,5.0,-999.0,76,-99.99,,,0.00,weatherlink.com 1.10,2014-01-24 04:56:00,
2014-01-23 23:11:00,3.0,-4.0,30.71,South,189,5.0,-999.0,74,-99.99,,,0.00,weatherlink.com 1.10,2014-01-24 05:11:00,
2014-01-23 23:26:00,3.7,-3.0,30.70,SW,215,3.0,-999.0,73,-99.99,,,0.00,weatherlink.com 1.10,2014-01-24 05:26:00,
2014-01-23 23:41:00,3.9,-4.0,30.69,SSE,164,4.0,-999.0,71,-99.99,,,0.00,weatherlink.com 1.10,2014-01-24 05:41:00,
2014-01-23 23:56:00,4.7,-3.0,30.68,South,190,7.0,-999.0,69,-99.99,,,0.00,weatherlink.com 1.10,2014-01-24 05:56:00,